Time,TemperatureF,DewpointF,PressureIn,WindDirection,WindDirectionDegrees,WindSpeedMPH,WindSpeedGustMPH,Humidity,HourlyPrecipIn,Conditions,Clouds,dailyrainin,SoftwareType,DateUTC
2013-02-01 00:00:00,26.9,8.4,29.63,WSW,253,4.0,11.0,45,0.00,,FEW039,0.62,VWS V14.00,2013-02-01 05:00:00,
2013-02-01 00:01:00,26.9,8.9,29.63,West,265,7.0,7.0,46,0.00,,FEW039,0.00,VWS V14.00,2013-02-01 05:01:00,
2013-02-01 00:03:00,26.9,8.9,29.63,West,268,5.0,5.0,46,0.00,,FEW039,0.00,VWS V14.00,2013-02-01 05:03:00,
2013-02-01 00:08:00,26.7,8.2,29.63,West,264,5.0,12.0,45,0.00,,FEW039,0.00,VWS V14.00,2013-02-01 05:08:00,
2013-02-01 00:13:00,26.7,8.2,29.63,SSW,209,5.0,23.0,45,0.00,,FEW039,0.00,VWS V14.00,2013-02-01 05:13:00,
2013-02-01 00:18:00,26.7,7.7,29.63,SSW,207,7.0,14.0,44,0.00,,FEW039,0.00,VWS V14.00,2013-02-01 05:18:00,
2013-02-01 00:23:00,26.6,8.1,29.63,SW,221,6.0,13.0,45,0.00,,FEW039,0.00,VWS V14.00,2013-02-01 05:23:00,
2013-02-01 00:28:00,26.6,7.6,29.63,WSW,257,12.0,14.0,44,0.00,,,0.00,VWS V14.00,2013-02-01 05:28:00,
2013-02-01 00:33:00,26.6,7.1,29.64,SW,235,4.0,7.0,43,0.00,,FEW039,0.00,VWS V14.00,2013-02-01 05:33:00,
2013-02-01 00:38:00,26.6,7.1,29.64,West,271,6.0,19.0,43,0.00,,FEW039,0.00,VWS V14.00,2013-02-01 05:38:00,
2013-02-01 00:43:00,26.4,6.9,29.64,SSW,210,5.0,13.0,43,0.00,,FEW039,0.00,VWS V14.00,2013-02-01 05:43:00,
2013-02-01 00:48:00,26.4,6.9,29.65,West,259,9.0,13.0,43,0.00,,CLR,0.00,VWS V14.00,2013-02-01 05:48:00,
2013-02-01 00:53:00,26.3,6.9,29.65,WNW,298,12.0,13.0,43,0.00,,CLR,0.00,VWS V14.00,2013-02-01 05:53:00,
2013-02-01 00:58:00,26.3,6.9,29.65,SW,221,5.0,9.0,43,0.00,,CLR,0.00,VWS V14.00,2013-02-01 05:58:00,
2013-02-01 01:03:00,26.3,6.3,29.65,West,261,4.0,5.0,42,0.00,,CLR,0.00,VWS V14.00,2013-02-01 06:03:00,
2013-02-01 01:08:00,26.3,5.8,29.65,West,271,14.0,18.0,41,0.00,,CLR,0.00,VWS V14.00,2013-02-01 06:08:00,
2013-02-01 01:13:00,26.3,5.8,29.65,SSW,207,5.0,12.0,41,0.00,,CLR,0.00,VWS V14.00,2013-02-01 06:13:00,
2013-02-01 01:18:00,26.3,5.8,29.66,WNW,291,12.0,15.0,41,0.00,,CLR,0.00,VWS V14.00,2013-02-01 06:18:00,
2013-02-01 01:23:00,26.1,6.2,29.66,WSW,249,3.0,5.0,42,0.00,,CLR,0.00,VWS V14.00,2013-02-01 06:23:00,
2013-02-01 01:28:00,26.0,6.1,29.66,West,263,10.0,15.0,42,0.00,,CLR,0.00,VWS V14.00,2013-02-01 06:28:00,
2013-02-01 01:33:00,26.1,6.2,29.66,WSW,254,11.0,11.0,42,0.00,,CLR,0.00,VWS V14.00,2013-02-01 06:33:00,
2013-02-01 01:38:00,26.0,6.1,29.66,WSW,250,5.0,5.0,42,0.00,,CLR,0.00,VWS V14.00,2013-02-01 06:38:00,
2013-02-01 01:43:00,25.8,6.4,29.66,West,259,9.0,19.0,43,0.00,,CLR,0.00,VWS V14.00,2013-02-01 06:43:00,
2013-02-01 01:48:00,26.0,6.1,29.66,West,269,14.0,20.0,42,0.00,,CLR,0.00,VWS V14.00,2013-02-01 06:48:00,
2013-02-01 01:53:00,26.0,6.1,29.66,West,273,3.0,5.0,42,0.00,,CLR,0.00,VWS V14.00,2013-02-01 06:53:00,
2013-02-01 01:58:00,26.0,6.1,29.66,WSW,254,12.0,14.0,42,0.00,,CLR,0.00,VWS V14.00,2013-02-01 06:58:00,
2013-02-01 02:03:00,25.8,6.9,29.67,West,269,4.0,5.0,44,0.00,,CLR,0.00,VWS V14.00,2013-02-01 07:03:00,
2013-02-01 02:08:00,25.8,6.9,29.67,WSW,245,5.0,10.0,44,0.00,,CLR,0.00,VWS V14.00,2013-02-01 07:08:00,
2013-02-01 02:13:00,25.7,6.8,29.67,WSW,253,4.0,10.0,44,0.00,,CLR,0.00,VWS V14.00,2013-02-01 07:13:00,
2013-02-01 02:18:00,25.7,7.3,29.67,West,267,6.0,10.0,45,0.00,,CLR,0.00,VWS V14.00,2013-02-01 07:18:00,
2013-02-01 02:23:00,25.7,7.8,29.67,WSW,250,4.0,14.0,46,0.00,,CLR,0.00,VWS V14.00,2013-02-01 07:23:00,
2013-02-01 02:28:00,25.7,7.8,29.67,SW,232,5.0,12.0,46,0.00,,CLR,0.00,VWS V14.00,2013-02-01 07:28:00,
2013-02-01 02:33:00,25.7,7.8,29.67,WSW,257,5.0,7.0,46,0.00,,CLR,0.00,VWS V14.00,2013-02-01 07:33:00,
2013-02-01 02:38:00,25.6,7.7,29.67,SW,229,2.0,12.0,46,0.00,,CLR,0.00,VWS V14.00,2013-02-01 07:38:00,
2013-02-01 02:43:00,25.7,8.3,29.67,SW,222,4.0,7.0,47,0.00,,CLR,0.00,VWS V14.00,2013-02-01 07:43:00,
2013-02-01 02:48:00,25.7,8.3,29.67,WSW,257,4.0,5.0,47,0.00,,BKN060,0.00,VWS V14.00,2013-02-01 07:48:00,
2013-02-01 02:54:00,25.6,8.6,29.67,SW,224,4.0,7.0,48,0.00,,BKN060,0.00,VWS V14.00,2013-02-01 07:54:00,
2013-02-01 02:58:00,25.6,9.1,29.67,SW,221,1.0,5.0,49,0.00,,BKN060,0.00,VWS V14.00,2013-02-01 07:58:00,
2013-02-01 03:03:00,25.6,8.6,29.67,West,279,7.0,8.0,48,0.00,,BKN060,0.00,VWS V14.00,2013-02-01 08:03:00,
2013-02-01 03:09:00,25.6,9.1,29.67,SW,225,14.0,14.0,49,0.00,,BKN060,0.00,VWS V14.00,2013-02-01 08:09:00,
2013-02-01 03:14:00,25.7,8.7,29.67,WSW,246,2.0,4.0,48,0.00,,BKN060,0.00,VWS V14.00,2013-02-01 08:14:00,
2013-02-01 03:19:00,25.7,9.6,29.68,WSW,244,8.0,9.0,50,0.00,,BKN060,0.00,VWS V14.00,2013-02-01 08:19:00,
2013-02-01 03:24:00,25.6,9.1,29.68,WSW,258,5.0,6.0,49,0.00,,BKN060,0.00,VWS V14.00,2013-02-01 08:24:00,
2013-02-01 03:29:00,25.6,9.6,29.68,West,259,7.0,9.0,50,0.00,,BKN060,0.00,VWS V14.00,2013-02-01 08:29:00,
2013-02-01 03:34:00,25.7,9.2,29.67,West,264,6.0,6.0,49,0.00,,BKN060,0.00,VWS V14.00,2013-02-01 08:34:00,
2013-02-01 03:39:00,25.6,9.6,29.67,WSW,252,1.0,4.0,50,0.00,,BKN060,0.00,VWS V14.00,2013-02-01 08:39:00,
2013-02-01 03:44:00,25.6,9.6,29.67,SSW,192,3.0,7.0,50,0.00,,BKN060,0.00,VWS V14.00,2013-02-01 08:44:00,
2013-02-01 03:49:00,25.6,9.6,29.67,SW,236,4.0,7.0,50,0.00,,FEW050,0.00,VWS V14.00,2013-02-01 08:49:00,
2013-02-01 03:54:00,25.6,9.6,29.67,West,273,12.0,14.0,50,0.00,,FEW050,0.00,VWS V14.00,2013-02-01 08:54:00,
2013-02-01 03:59:00,25.4,9.8,29.67,SW,229,2.0,6.0,51,0.00,,FEW050,0.00,VWS V14.00,2013-02-01 08:59:00,
2013-02-01 04:04:00,25.3,9.7,29.67,SSW,205,6.0,6.0,51,0.00,,FEW050,0.00,VWS V14.00,2013-02-01 09:04:00,
2013-02-01 04:09:00,25.3,9.7,29.67,SW,229,8.0,10.0,51,0.00,,FEW050,0.00,VWS V14.00,2013-02-01 09:09:00,
2013-02-01 04:14:00,25.1,9.1,29.67,SW,229,2.0,5.0,50,0.00,,FEW050,0.00,VWS V14.00,2013-02-01 09:14:00,
2013-02-01 04:19:00,25.1,9.5,29.66,SW,221,2.0,4.0,51,0.00,,FEW050,0.00,VWS V14.00,2013-02-01 09:19:00,
2013-02-01 04:24:00,25.0,9.9,29.66,WSW,255,6.0,9.0,52,0.00,,FEW050,0.00,VWS V14.00,2013-02-01 09:24:00,
2013-02-01 04:29:00,24.8,9.7,29.66,SW,227,4.0,6.0,52,0.00,,FEW050,0.00,VWS V14.00,2013-02-01 09:29:00,
2013-02-01 04:34:00,24.8,9.7,29.67,WSW,246,4.0,5.0,52,0.00,,FEW050,0.00,VWS V14.00,2013-02-01 09:34:00,
2013-02-01 04:39:00,24.7,10.0,29.67,WSW,254,1.0,2.0,53,0.00,,FEW050,0.00,VWS V14.00,2013-02-01 09:39:00,
2013-02-01 04:44:00,24.5,9.8,29.67,West,263,4.0,5.0,53,0.00,,FEW050,0.00,VWS V14.00,2013-02-01 09:44:00,
2013-02-01 04:49:00,24.5,9.8,29.68,SW,217,1.0,5.0,53,0.00,,CLR,0.00,VWS V14.00,2013-02-01 09:49:00,
2013-02-01 04:54:00,24.4,9.7,29.68,West,266,4.0,7.0,53,0.00,,CLR,0.00,VWS V14.00,2013-02-01 09:54:00,
2013-02-01 04:59:00,24.4,10.1,29.68,SW,231,5.0,10.0,54,0.00,,CLR,0.00,VWS V14.00,2013-02-01 09:59:00,
2013-02-01 05:04:00,24.4,9.7,29.68,SW,236,4.0,7.0,53,0.00,,CLR,0.00,VWS V14.00,2013-02-01 10:04:00,
2013-02-01 05:09:00,24.4,9.7,29.68,SW,214,4.0,5.0,53,0.00,,CLR,0.00,VWS V14.00,2013-02-01 10:09:00,
2013-02-01 05:14:00,24.4,10.1,29.68,SSW,207,1.0,5.0,54,0.00,,CLR,0.00,VWS V14.00,2013-02-01 10:14:00,
2013-02-01 05:19:00,24.4,10.1,29.68,SW,221,3.0,4.0,54,0.00,,CLR,0.00,VWS V14.00,2013-02-01 10:19:00,
2013-02-01 05:24:00,24.2,10.0,29.68,WSW,257,4.0,4.0,54,0.00,,CLR,0.00,VWS V14.00,2013-02-01 10:24:00,
2013-02-01 05:29:00,24.1,10.3,29.68,WSW,256,4.0,6.0,55,0.00,,CLR,0.00,VWS V14.00,2013-02-01 10:29:00,
2013-02-01 05:34:00,24.1,10.3,29.69,SW,225,3.0,3.0,55,0.00,,CLR,0.00,VWS V14.00,2013-02-01 10:34:00,
2013-02-01 05:39:00,23.9,10.5,29.69,SW,217,4.0,7.0,56,0.00,,CLR,0.00,VWS V14.00,2013-02-01 10:39:00,
2013-02-01 05:44:00,23.9,10.5,29.69,SW,232,11.0,11.0,56,0.00,,CLR,0.00,VWS V14.00,2013-02-01 10:44:00,
2013-02-01 05:49:00,23.9,10.5,29.70,WSW,245,2.0,10.0,56,0.00,,CLR,0.00,VWS V14.00,2013-02-01 10:49:00,
2013-02-01 05:54:00,23.9,10.5,29.70,SW,217,5.0,10.0,56,0.00,,CLR,0.00,VWS V14.00,2013-02-01 10:54:00,
2013-02-01 05:59:00,23.9,10.5,29.70,SW,215,4.0,5.0,56,0.00,,CLR,0.00,VWS V14.00,2013-02-01 10:59:00,
2013-02-01 06:04:00,23.9,10.5,29.70,SW,219,2.0,4.0,56,0.00,,CLR,0.00,VWS V14.00,2013-02-01 11:04:00,
2013-02-01 06:09:00,23.9,10.5,29.70,West,261,4.0,6.0,56,0.00,,CLR,0.00,VWS V14.00,2013-02-01 11:09:00,
2013-02-01 06:14:00,23.9,10.1,29.70,WSW,254,3.0,11.0,55,0.00,,CLR,0.00,VWS V14.00,2013-02-01 11:14:00,
2013-02-01 06:19:00,24.1,10.3,29.71,West,270,7.0,7.0,55,0.00,,CLR,0.00,VWS V14.00,2013-02-01 11:19:00,
2013-02-01 06:24:00,24.1,10.3,29.71,SW,229,5.0,11.0,55,0.00,,CLR,0.00,VWS V14.00,2013-02-01 11:24:00,
2013-02-01 06:29:00,24.1,10.3,29.71,WSW,255,5.0,8.0,55,0.00,,CLR,0.00,VWS V14.00,2013-02-01 11:29:00,
2013-02-01 06:34:00,23.9,10.1,29.72,West,259,4.0,4.0,55,0.00,,CLR,0.00,VWS V14.00,2013-02-01 11:34:00,
2013-02-01 06:39:00,23.9,10.1,29.72,SSW,209,4.0,6.0,55,0.00,,CLR,0.00,VWS V14.00,2013-02-01 11:39:00,
2013-02-01 06:44:00,23.9,10.5,29.72,SSW,208,7.0,7.0,56,0.00,,CLR,0.00,VWS V14.00,2013-02-01 11:44:00,
2013-02-01 06:49:00,23.9,10.5,29.72,WSW,238,7.0,9.0,56,0.00,,SCT044,0.00,VWS V14.00,2013-02-01 11:49:00,
2013-02-01 06:54:00,23.9,10.5,29.72,WSW,241,3.0,9.0,56,0.00,,SCT044,0.00,VWS V14.00,2013-02-01 11:54:00,
2013-02-01 06:59:00,23.8,10.4,29.72,SSW,202,5.0,5.0,56,0.00,,SCT044,0.00,VWS V14.00,2013-02-01 11:59:00,
2013-02-01 07:04:00,23.9,10.5,29.73,WSW,250,5.0,6.0,56,0.00,,SCT044,0.00,VWS V14.00,2013-02-01 12:04:00,
2013-02-01 07:09:00,23.9,10.5,29.73,SW,234,2.0,4.0,56,0.00,,SCT044,0.00,VWS V14.00,2013-02-01 12:09:00,
2013-02-01 07:14:00,23.9,10.9,29.73,WSW,244,2.0,2.0,57,0.00,,SCT044,0.00,VWS V14.00,2013-02-01 12:14:00,
2013-02-01 07:19:00,23.9,10.9,29.74,SW,229,5.0,5.0,57,0.00,,SCT044,0.00,VWS V14.00,2013-02-01 12:19:00,
2013-02-01 07:24:00,23.9,10.9,29.74,WSW,238,2.0,9.0,57,0.00,,SCT044,0.00,VWS V14.00,2013-02-01 12:24:00,
2013-02-01 07:29:00,23.9,10.5,29.74,West,264,9.0,13.0,56,0.00,,SCT044,0.00,VWS V14.00,2013-02-01 12:29:00,
2013-02-01 07:35:00,23.9,10.5,29.74,SSW,213,7.0,13.0,56,0.00,,SCT044,0.00,VWS V14.00,2013-02-01 12:35:00,
2013-02-01 07:40:00,24.1,10.3,29.74,SW,229,4.0,5.0,55,0.00,,SCT044,0.00,VWS V14.00,2013-02-01 12:40:00,
2013-02-01 07:45:00,24.1,10.3,29.75,WSW,258,4.0,11.0,55,0.00,,SCT044,0.00,VWS V14.00,2013-02-01 12:45:00,
2013-02-01 07:50:00,24.1,10.3,29.75,WSW,252,4.0,11.0,55,0.00,,SCT044,0.00,VWS V14.00,2013-02-01 12:50:00,
2013-02-01 07:55:00,24.1,9.9,29.75,West,273,2.0,16.0,54,0.00,,SCT044,0.00,VWS V14.00,2013-02-01 12:55:00,
2013-02-01 08:00:00,24.1,10.3,29.76,SW,219,6.0,12.0,55,0.00,,SCT044,0.00,VWS V14.00,2013-02-01 13:00:00,
2013-02-01 08:05:00,24.2,10.0,29.76,SSW,202,3.0,5.0,54,0.00,,SCT044,0.00,VWS V14.00,2013-02-01 13:05:00,
2013-02-01 08:10:00,24.2,10.0,29.76,South,191,5.0,9.0,54,0.00,,SCT044,0.00,VWS V14.00,2013-02-01 13:10:00,
2013-02-01 08:15:00,24.2,10.0,29.76,WSW,242,4.0,15.0,54,0.00,,SCT044,0.00,VWS V14.00,2013-02-01 13:15:00,
2013-02-01 08:20:00,24.4,9.7,29.76,SW,230,5.0,10.0,53,0.00,,SCT044,0.00,VWS V14.00,2013-02-01 13:20:00,
2013-02-01 08:25:00,24.4,9.7,29.76,WSW,255,5.0,5.0,53,0.00,,SCT044,0.00,VWS V14.00,2013-02-01 13:25:00,
2013-02-01 08:30:00,24.5,9.4,29.77,WNW,286,6.0,13.0,52,0.00,,SCT044,0.00,VWS V14.00,2013-02-01 13:30:00,
2013-02-01 08:35:00,24.5,9.0,29.77,West,278,11.0,14.0,51,0.00,,BKN044,0.00,VWS V14.00,2013-02-01 13:35:00,
2013-02-01 08:40:00,24.7,8.7,29.77,WSW,247,12.0,14.0,50,0.00,,BKN044,0.00,VWS V14.00,2013-02-01 13:40:00,
2013-02-01 08:45:00,24.8,8.4,29.77,NW,311,9.0,14.0,49,0.00,,BKN044,0.00,VWS V14.00,2013-02-01 13:45:00,
2013-02-01 08:50:00,24.8,8.8,29.77,WNW,289,5.0,5.0,50,0.00,,CLR,0.00,VWS V14.00,2013-02-01 13:50:00,
2013-02-01 08:55:00,25.0,8.6,29.77,SW,225,2.0,7.0,49,0.00,,CLR,0.00,VWS V14.00,2013-02-01 13:55:00,
2013-02-01 09:00:00,25.0,8.6,29.76,WSW,255,5.0,11.0,49,0.00,,CLR,0.00,VWS V14.00,2013-02-01 14:00:00,
2013-02-01 09:05:00,25.0,8.6,29.76,WNW,287,14.0,21.0,49,0.00,,CLR,0.00,VWS V14.00,2013-02-01 14:05:00,
2013-02-01 09:10:00,24.8,8.8,29.76,NW,315,4.0,7.0,50,0.00,,CLR,0.00,VWS V14.00,2013-02-01 14:10:00,
2013-02-01 09:15:00,24.8,8.8,29.76,WNW,300,5.0,9.0,50,0.00,,CLR,0.00,VWS V14.00,2013-02-01 14:15:00,
2013-02-01 09:20:00,24.7,8.7,29.76,WNW,296,10.0,16.0,50,0.00,,CLR,0.00,VWS V14.00,2013-02-01 14:20:00,
2013-02-01 09:25:00,24.8,8.8,29.76,WNW,287,4.0,10.0,50,0.00,,CLR,0.00,VWS V14.00,2013-02-01 14:25:00,
2013-02-01 09:30:00,25.0,9.0,29.76,West,278,10.0,13.0,50,0.00,,CLR,0.00,VWS V14.00,2013-02-01 14:30:00,
2013-02-01 09:35:00,25.1,9.1,29.76,WNW,293,10.0,12.0,50,0.00,,CLR,0.00,VWS V14.00,2013-02-01 14:35:00,
2013-02-01 09:40:00,25.1,8.6,29.76,SSW,212,4.0,13.0,49,0.00,,CLR,0.00,VWS V14.00,2013-02-01 14:40:00,
2013-02-01 09:45:00,25.3,8.8,29.77,WNW,283,5.0,7.0,49,0.00,,CLR,0.00,VWS V14.00,2013-02-01 14:45:00,
2013-02-01 09:50:00,25.3,8.8,29.77,SW,215,2.0,21.0,49,0.00,,CLR,0.00,VWS V14.00,2013-02-01 14:50:00,
2013-02-01 09:56:00,25.3,8.4,29.77,NW,315,9.0,11.0,48,0.00,,CLR,0.00,VWS V14.00,2013-02-01 14:56:00,
2013-02-01 10:01:00,25.1,7.7,29.78,SSW,203,4.0,6.0,47,0.00,,CLR,0.00,VWS V14.00,2013-02-01 15:01:00,
2013-02-01 10:06:00,25.1,7.7,29.78,West,271,3.0,5.0,47,0.00,,CLR,0.00,VWS V14.00,2013-02-01 15:06:00,
2013-02-01 10:11:00,25.3,7.4,29.78,WNW,302,13.0,17.0,46,0.00,,CLR,0.00,VWS V14.00,2013-02-01 15:11:00,
2013-02-01 10:16:00,25.4,7.5,29.78,West,278,5.0,14.0,46,0.00,,CLR,0.00,VWS V14.00,2013-02-01 15:16:00,
2013-02-01 10:21:00,25.6,7.2,29.78,NW,305,13.0,13.0,45,0.00,,CLR,0.00,VWS V14.00,2013-02-01 15:21:00,
2013-02-01 10:26:00,25.4,6.5,29.78,WNW,292,3.0,13.0,44,0.00,,CLR,0.00,VWS V14.00,2013-02-01 15:26:00,
2013-02-01 10:31:00,25.6,7.7,29.78,WNW,300,6.0,12.0,46,0.00,,CLR,0.00,VWS V14.00,2013-02-01 15:31:00,
2013-02-01 10:36:00,25.6,6.7,29.78,NW,314,11.0,16.0,44,0.00,,CLR,0.00,VWS V14.00,2013-02-01 15:36:00,
2013-02-01 10:41:00,25.7,7.3,29.78,WNW,302,6.0,13.0,45,0.00,,CLR,0.00,VWS V14.00,2013-02-01 15:41:00,
2013-02-01 10:46:00,25.7,7.3,29.78,West,270,5.0,10.0,45,0.00,,BKN110,0.00,VWS V14.00,2013-02-01 15:46:00,
2013-02-01 10:51:00,26.0,7.6,29.78,WNW,293,5.0,12.0,45,0.00,,BKN110,0.00,VWS V14.00,2013-02-01 15:51:00,
2013-02-01 10:56:00,26.1,7.7,29.78,NW,313,4.0,5.0,45,0.00,,BKN110,0.00,VWS V14.00,2013-02-01 15:56:00,
2013-02-01 11:01:00,26.1,8.2,29.78,WSW,248,5.0,9.0,46,0.00,,BKN110,0.00,VWS V14.00,2013-02-01 16:01:00,
2013-02-01 11:06:00,26.1,8.6,29.78,WNW,292,11.0,12.0,47,0.00,,BKN110,0.00,VWS V14.00,2013-02-01 16:06:00,
2013-02-01 11:11:00,26.1,8.6,29.78,WNW,287,3.0,7.0,47,0.00,,BKN110,0.00,VWS V14.00,2013-02-01 16:11:00,
2013-02-01 11:16:00,26.1,8.6,29.78,WNW,293,5.0,10.0,47,0.00,,BKN110,0.00,VWS V14.00,2013-02-01 16:16:00,
2013-02-01 11:21:00,26.1,9.6,29.78,WNW,301,9.0,11.0,49,0.00,,BKN110,0.00,VWS V14.00,2013-02-01 16:21:00,
2013-02-01 11:26:00,26.1,9.6,29.78,West,259,3.0,5.0,49,0.00,,BKN110,0.00,VWS V14.00,2013-02-01 16:26:00,
2013-02-01 11:31:00,26.7,9.7,29.77,WNW,288,2.0,5.0,48,0.00,,BKN110,0.00,VWS V14.00,2013-02-01 16:31:00,
2013-02-01 11:36:00,26.9,9.4,29.77,WNW,290,4.0,7.0,47,0.00,,BKN110,0.00,VWS V14.00,2013-02-01 16:36:00,
2013-02-01 11:41:00,27.2,8.2,29.77,WSW,239,3.0,9.0,44,0.00,,BKN110,0.00,VWS V14.00,2013-02-01 16:41:00,
2013-02-01 11:46:00,27.3,7.8,29.76,SW,221,4.0,7.0,43,0.00,,BKN100,0.00,VWS V14.00,2013-02-01 16:46:00,
2013-02-01 11:51:00,27.3,6.2,29.76,West,280,6.0,9.0,40,0.00,,BKN100,0.00,VWS V14.00,2013-02-01 16:51:00,
2013-02-01 11:56:00,27.8,7.7,29.76,West,275,3.0,5.0,42,0.00,,BKN100,0.00,VWS V14.00,2013-02-01 16:56:00,
2013-02-01 12:01:00,28.2,5.9,29.75,SW,229,6.0,11.0,38,0.00,,BKN100,0.00,VWS V14.00,2013-02-01 17:01:00,
2013-02-01 12:06:00,28.4,6.1,29.75,WNW,290,6.0,7.0,38,0.00,,BKN100,0.00,VWS V14.00,2013-02-01 17:06:00,
2013-02-01 12:11:00,27.9,5.0,29.75,NW,321,5.0,12.0,37,0.00,,BKN100,0.00,VWS V14.00,2013-02-01 17:11:00,
2013-02-01 12:16:00,27.8,3.7,29.75,WNW,286,10.0,16.0,35,0.00,,BKN100,0.00,VWS V14.00,2013-02-01 17:16:00,
2013-02-01 12:21:00,27.3,2.7,29.75,WNW,293,4.0,18.0,34,0.00,,BKN100,0.00,VWS V14.00,2013-02-01 17:21:00,
2013-02-01 12:26:00,27.2,2.6,29.75,West,281,10.0,14.0,34,0.00,,BKN100,0.00,VWS V14.00,2013-02-01 17:26:00,
2013-02-01 12:31:00,27.2,1.9,29.75,WNW,284,6.0,15.0,33,0.00,,BKN100,0.00,VWS V14.00,2013-02-01 17:31:00,
2013-02-01 12:36:00,27.2,1.9,29.75,WNW,294,16.0,16.0,33,0.00,,BKN100,0.00,VWS V14.00,2013-02-01 17:36:00,
2013-02-01 12:41:00,27.5,2.2,29.75,West,281,16.0,17.0,33,0.00,,BKN100,0.00,VWS V14.00,2013-02-01 17:41:00,
2013-02-01 12:46:00,27.8,2.5,29.75,WNW,293,22.0,22.0,33,0.00,,OVC060,0.00,VWS V14.00,2013-02-01 17:46:00,
2013-02-01 12:51:00,27.6,2.3,29.75,West,275,17.0,18.0,33,0.00,,OVC060,0.00,VWS V14.00,2013-02-01 17:51:00,
2013-02-01 12:56:00,27.9,3.8,29.75,West,271,11.0,14.0,35,0.00,,OVC060,0.00,VWS V14.00,2013-02-01 17:56:00,
2013-02-01 13:01:00,28.5,4.3,29.75,WSW,247,4.0,7.0,35,0.00,,OVC060,0.00,VWS V14.00,2013-02-01 18:01:00,
2013-02-01 13:06:00,29.1,1.5,29.75,WNW,290,9.0,17.0,30,0.00,,OVC060,0.00,VWS V14.00,2013-02-01 18:06:00,
2013-02-01 13:11:00,29.1,2.2,29.75,NW,306,9.0,17.0,31,0.00,,OVC060,0.00,VWS V14.00,2013-02-01 18:11:00,
2013-02-01 13:16:00,29.5,1.2,29.75,WNW,286,7.0,20.0,29,0.00,,OVC060,0.00,VWS V14.00,2013-02-01 18:16:00,
2013-02-01 13:21:00,29.8,4.9,29.75,West,267,13.0,16.0,34,0.00,,OVC060,0.00,VWS V14.00,2013-02-01 18:21:00,
2013-02-01 13:26:00,29.8,2.9,29.75,West,276,10.0,14.0,31,0.00,,OVC060,0.00,VWS V14.00,2013-02-01 18:26:00,
2013-02-01 13:31:00,29.0,0.7,29.76,West,279,11.0,19.0,29,0.00,,OVC060,0.00,VWS V14.00,2013-02-01 18:31:00,
2013-02-01 13:36:00,28.1,0.7,29.76,NW,309,11.0,16.0,30,0.00,,OVC060,0.00,VWS V14.00,2013-02-01 18:36:00,
2013-02-01 13:41:00,27.8,1.1,29.76,WNW,286,15.0,16.0,31,0.00,,OVC060,0.00,VWS V14.00,2013-02-01 18:41:00,
2013-02-01 13:46:00,27.8,1.8,29.77,NNW,332,7.0,16.0,32,0.00,,BKN070,0.00,VWS V14.00,2013-02-01 18:46:00,
2013-02-01 13:51:00,27.8,1.8,29.77,WNW,287,11.0,16.0,32,0.00,,BKN070,0.00,VWS V14.00,2013-02-01 18:51:00,
2013-02-01 13:56:00,27.5,1.5,29.77,WNW,302,11.0,13.0,32,0.00,,BKN070,0.00,VWS V14.00,2013-02-01 18:56:00,
2013-02-01 14:01:00,27.6,1.6,29.78,West,281,17.0,21.0,32,0.00,,BKN070,0.00,VWS V14.00,2013-02-01 19:01:00,
2013-02-01 14:06:00,27.3,2.0,29.78,West,267,5.0,11.0,33,0.00,,BKN070,0.00,VWS V14.00,2013-02-01 19:06:00,
2013-02-01 14:11:00,27.2,1.9,29.78,WNW,283,3.0,16.0,33,0.00,,BKN070,0.00,VWS V14.00,2013-02-01 19:11:00,
2013-02-01 14:16:00,27.3,1.4,29.78,NW,306,11.0,18.0,32,0.00,,BKN070,0.00,VWS V14.00,2013-02-01 19:16:00,
2013-02-01 14:22:00,27.2,-0.1,29.78,WSW,252,8.0,14.0,30,0.00,,BKN070,0.00,VWS V14.00,2013-02-01 19:22:00,
2013-02-01 14:27:00,27.3,1.4,29.78,WNW,282,4.0,7.0,32,0.00,,BKN070,0.00,VWS V14.00,2013-02-01 19:27:00,
2013-02-01 14:32:00,27.5,0.8,29.79,NNW,336,6.0,8.0,31,0.00,,BKN070,0.00,VWS V14.00,2013-02-01 19:32:00,
2013-02-01 14:37:00,27.5,0.2,29.79,WNW,289,5.0,23.0,30,0.00,,BKN070,0.00,VWS V14.00,2013-02-01 19:37:00,
2013-02-01 14:42:00,27.3,1.4,29.79,WNW,284,9.0,10.0,32,0.00,,BKN070,0.00,VWS V14.00,2013-02-01 19:42:00,
2013-02-01 14:47:00,27.3,1.4,29.80,West,275,6.0,19.0,32,0.00,,BKN080,0.00,VWS V14.00,2013-02-01 19:47:00,
2013-02-01 14:52:00,27.2,-0.1,29.80,WNW,291,10.0,15.0,30,0.00,,BKN080,0.00,VWS V14.00,2013-02-01 19:52:00,
2013-02-01 14:57:00,27.2,1.3,29.80,WNW,302,12.0,16.0,32,0.00,,BKN080,0.00,VWS V14.00,2013-02-01 19:57:00,
2013-02-01 15:02:00,27.2,2.6,29.81,WNW,302,5.0,8.0,34,0.00,,BKN080,0.00,VWS V14.00,2013-02-01 20:02:00,
2013-02-01 15:07:00,27.0,3.0,29.81,WNW,288,6.0,12.0,35,0.00,,BKN080,0.00,VWS V14.00,2013-02-01 20:07:00,
2013-02-01 15:12:00,27.0,3.0,29.81,NW,311,5.0,13.0,35,0.00,,BKN080,0.00,VWS V14.00,2013-02-01 20:12:00,
2013-02-01 15:17:00,26.9,2.9,29.82,WNW,300,3.0,5.0,35,0.00,,BKN080,0.00,VWS V14.00,2013-02-01 20:17:00,
2013-02-01 15:22:00,26.9,2.9,29.82,NW,309,12.0,15.0,35,0.00,,BKN080,0.00,VWS V14.00,2013-02-01 20:22:00,
2013-02-01 15:27:00,26.9,3.5,29.82,NW,321,9.0,12.0,36,0.00,,BKN080,0.00,VWS V14.00,2013-02-01 20:27:00,
2013-02-01 15:32:00,26.7,4.5,29.83,NW,317,10.0,14.0,38,0.00,,BKN080,0.00,VWS V14.00,2013-02-01 20:32:00,
2013-02-01 15:37:00,26.6,5.6,29.83,West,279,11.0,11.0,40,0.00,,BKN080,0.00,VWS V14.00,2013-02-01 20:37:00,
2013-02-01 15:42:00,26.3,7.4,29.83,WNW,296,11.0,18.0,44,0.00,,BKN080,0.00,VWS V14.00,2013-02-01 20:42:00,
2013-02-01 15:47:00,26.1,8.2,29.85,WSW,252,5.0,13.0,46,0.00,,OVC080,0.00,VWS V14.00,2013-02-01 20:47:00,
2013-02-01 15:52:00,26.0,6.1,29.85,WSW,249,3.0,10.0,42,0.00,,OVC080,0.00,VWS V14.00,2013-02-01 20:52:00,
2013-02-01 15:57:00,26.3,5.3,29.85,WNW,284,5.0,6.0,40,0.00,,OVC080,0.00,VWS V14.00,2013-02-01 20:57:00,
2013-02-01 16:02:00,26.4,4.8,29.86,WNW,295,4.0,6.0,39,0.00,,OVC080,0.00,VWS V14.00,2013-02-01 21:02:00,
2013-02-01 16:07:00,26.3,4.2,29.86,WNW,300,10.0,13.0,38,0.00,,OVC080,0.00,VWS V14.00,2013-02-01 21:07:00,
2013-02-01 16:12:00,26.4,4.2,29.86,West,273,5.0,13.0,38,0.00,,OVC080,0.00,VWS V14.00,2013-02-01 21:12:00,
2013-02-01 16:17:00,26.6,5.6,29.86,WNW,302,4.0,11.0,40,0.00,,OVC080,0.00,VWS V14.00,2013-02-01 21:17:00,
2013-02-01 16:22:00,26.7,7.2,29.86,WNW,284,7.0,15.0,43,0.00,,OVC080,0.00,VWS V14.00,2013-02-01 21:22:00,
2013-02-01 16:27:00,25.8,8.8,29.86,WNW,298,11.0,16.0,48,0.00,,OVC080,0.00,VWS V14.00,2013-02-01 21:27:00,
2013-02-01 16:32:00,25.4,8.9,29.88,WNW,296,1.0,13.0,49,0.00,,OVC080,0.00,VWS V14.00,2013-02-01 21:32:00,
2013-02-01 16:37:00,25.4,8.9,29.88,WNW,290,14.0,17.0,49,0.00,,OVC080,0.00,VWS V14.00,2013-02-01 21:37:00,
2013-02-01 16:42:00,25.3,8.8,29.88,WNW,300,10.0,12.0,49,0.00,,OVC080,0.00,VWS V14.00,2013-02-01 21:42:00,
2013-02-01 16:47:00,25.1,6.8,29.89,NW,308,7.0,14.0,45,0.00,,OVC080,0.00,VWS V14.00,2013-02-01 21:47:00,
2013-02-01 16:52:00,24.8,5.0,29.89,WSW,249,8.0,15.0,42,0.00,,OVC080,0.00,VWS V14.00,2013-02-01 21:52:00,
2013-02-01 16:57:00,24.7,5.4,29.89,West,261,8.0,11.0,43,0.00,,OVC080,0.00,VWS V14.00,2013-02-01 21:57:00,
2013-02-01 17:02:00,24.7,5.4,29.90,NNW,342,7.0,13.0,43,0.00,,OVC080,0.00,VWS V14.00,2013-02-01 22:02:00,
2013-02-01 17:07:00,24.5,5.2,29.90,WSW,257,11.0,18.0,43,0.00,,OVC080,0.00,VWS V14.00,2013-02-01 22:07:00,
2013-02-01 17:12:00,24.4,5.1,29.90,South,184,11.0,13.0,43,0.00,,OVC080,0.00,VWS V14.00,2013-02-01 22:12:00,
2013-02-01 17:17:00,24.4,4.6,29.92,NNW,329,6.0,18.0,42,0.00,,OVC080,0.00,VWS V14.00,2013-02-01 22:17:00,
2013-02-01 17:22:00,24.2,6.9,29.92,NW,307,10.0,18.0,47,0.00,,OVC080,0.00,VWS V14.00,2013-02-01 22:22:00,
2013-02-01 17:27:00,23.8,8.3,29.92,WNW,290,11.0,11.0,51,0.00,,OVC080,0.00,VWS V14.00,2013-02-01 22:27:00,
2013-02-01 17:32:00,23.5,8.1,29.93,NW,321,3.0,7.0,51,0.00,,OVC080,0.00,VWS V14.00,2013-02-01 22:32:00,
2013-02-01 17:37:00,23.5,8.1,29.93,NNE,24,2.0,10.0,51,0.00,,OVC080,0.00,VWS V14.00,2013-02-01 22:37:00,
2013-02-01 17:42:00,23.3,8.3,29.93,WNW,293,6.0,9.0,52,0.00,,OVC080,0.00,VWS V14.00,2013-02-01 22:42:00,
2013-02-01 17:47:00,23.3,8.7,29.94,NW,307,4.0,12.0,53,0.00,,BKN060,0.00,VWS V14.00,2013-02-01 22:47:00,
2013-02-01 17:52:00,23.2,8.6,29.94,NW,311,7.0,11.0,53,0.00,,BKN060,0.00,VWS V14.00,2013-02-01 22:52:00,
2013-02-01 17:57:00,23.0,8.4,29.94,NW,305,3.0,7.0,53,0.00,,BKN060,0.00,VWS V14.00,2013-02-01 22:57:00,
2013-02-01 18:02:00,23.0,8.4,29.96,NW,309,4.0,8.0,53,0.00,,BKN060,0.00,VWS V14.00,2013-02-01 23:02:00,
2013-02-01 18:07:00,23.0,8.0,29.96,NW,306,6.0,10.0,52,0.00,,BKN060,0.00,VWS V14.00,2013-02-01 23:07:00,
2013-02-01 18:12:00,22.9,6.6,29.96,NW,305,11.0,14.0,49,0.00,,BKN060,0.00,VWS V14.00,2013-02-01 23:12:00,
2013-02-01 18:17:00,23.0,5.3,29.97,West,275,3.0,12.0,46,0.00,,BKN060,0.00,VWS V14.00,2013-02-01 23:17:00,
2013-02-01 18:22:00,23.0,4.8,29.97,WNW,286,5.0,14.0,45,0.00,,BKN060,0.00,VWS V14.00,2013-02-01 23:22:00,
2013-02-01 18:27:00,23.0,4.3,29.97,West,280,12.0,18.0,44,0.00,,BKN060,0.00,VWS V14.00,2013-02-01 23:27:00,
2013-02-01 18:32:00,23.0,4.3,29.99,NW,312,2.0,6.0,44,0.00,,BKN060,0.00,VWS V14.00,2013-02-01 23:32:00,
2013-02-01 18:37:00,22.9,4.8,29.99,WNW,298,2.0,9.0,45,0.00,,BKN060,0.00,VWS V14.00,2013-02-01 23:37:00,
2013-02-01 18:42:00,22.7,4.6,29.99,WNW,289,8.0,10.0,45,0.00,,BKN060,0.00,VWS V14.00,2013-02-01 23:42:00,
2013-02-01 18:47:00,22.7,5.0,29.99,WNW,294,10.0,13.0,46,0.00,,CLR,0.00,VWS V14.00,2013-02-01 23:47:00,
2013-02-01 18:52:00,22.5,5.3,29.99,NW,311,6.0,8.0,47,0.00,,CLR,0.00,VWS V14.00,2013-02-01 23:52:00,
2013-02-01 18:57:00,22.5,5.3,29.99,NW,304,3.0,6.0,47,0.00,,CLR,0.00,VWS V14.00,2013-02-01 23:57:00,
2013-02-01 19:02:00,22.4,3.8,30.00,WNW,288,5.0,7.0,44,0.00,,CLR,0.00,VWS V14.00,2013-02-02 00:02:00,
2013-02-01 19:07:00,22.4,3.3,30.00,WNW,295,5.0,9.0,43,0.00,,CLR,0.00,VWS V14.00,2013-02-02 00:07:00,
2013-02-01 19:12:00,22.4,2.8,30.00,WNW,284,5.0,10.0,42,0.00,,CLR,0.00,VWS V14.00,2013-02-02 00:12:00,
2013-02-01 19:17:00,22.4,2.3,30.01,West,278,2.0,10.0,41,0.00,,CLR,0.00,VWS V14.00,2013-02-02 00:17:00,
2013-02-01 19:22:00,22.2,2.1,30.01,NW,304,6.0,6.0,41,0.00,,CLR,0.00,VWS V14.00,2013-02-02 00:22:00,
2013-02-01 19:27:00,22.2,1.0,30.01,NW,310,5.0,10.0,39,0.00,,CLR,0.00,VWS V14.00,2013-02-02 00:27:00,
2013-02-01 19:32:00,22.2,1.0,30.02,West,279,13.0,13.0,39,0.00,,CLR,0.00,VWS V14.00,2013-02-02 00:32:00,
2013-02-01 19:37:00,22.2,0.5,30.02,NW,313,8.0,17.0,38,0.00,,CLR,0.00,VWS V14.00,2013-02-02 00:37:00,
2013-02-01 19:42:00,22.2,0.5,30.02,NW,311,11.0,11.0,38,0.00,,CLR,0.00,VWS V14.00,2013-02-02 00:42:00,
2013-02-01 19:47:00,22.2,-0.1,30.02,West,279,11.0,14.0,37,0.00,,CLR,0.00,VWS V14.00,2013-02-02 00:47:00,
2013-02-01 19:52:00,22.2,-0.1,30.02,West,259,8.0,15.0,37,0.00,,CLR,0.00,VWS V14.00,2013-02-02 00:52:00,
2013-02-01 19:57:00,22.2,0.5,30.02,NW,324,11.0,12.0,38,0.00,,CLR,0.00,VWS V14.00,2013-02-02 00:57:00,
2013-02-01 20:02:00,22.1,0.9,30.03,WNW,292,7.0,12.0,39,0.00,,CLR,0.00,VWS V14.00,2013-02-02 01:02:00,
2013-02-01 20:07:00,21.9,0.8,30.03,WNW,295,12.0,12.0,39,0.00,,CLR,0.00,VWS V14.00,2013-02-02 01:07:00,
2013-02-01 20:12:00,21.9,1.3,30.03,West,278,12.0,12.0,40,0.00,,CLR,0.00,VWS V14.00,2013-02-02 01:12:00,
2013-02-01 20:17:00,21.8,1.2,30.03,West,277,4.0,12.0,40,0.00,,CLR,0.00,VWS V14.00,2013-02-02 01:17:00,
2013-02-01 20:22:00,21.8,1.7,30.03,NW,313,5.0,7.0,41,0.00,,CLR,0.00,VWS V14.00,2013-02-02 01:22:00,
2013-02-01 20:27:00,21.6,1.5,30.03,WNW,298,4.0,13.0,41,0.00,,CLR,0.00,VWS V14.00,2013-02-02 01:27:00,
2013-02-01 20:33:00,21.4,1.9,30.04,WNW,295,4.0,6.0,42,0.00,,CLR,0.00,VWS V14.00,2013-02-02 01:33:00,
2013-02-01 20:38:00,21.4,1.9,30.04,West,269,2.0,5.0,42,0.00,,CLR,0.00,VWS V14.00,2013-02-02 01:38:00,
2013-02-01 20:43:00,21.4,1.9,30.04,NW,311,6.0,7.0,42,0.00,,CLR,0.00,VWS V14.00,2013-02-02 01:43:00,
2013-02-01 20:48:00,21.3,1.8,30.05,WNW,288,1.0,7.0,42,0.00,,CLR,0.00,VWS V14.00,2013-02-02 01:48:00,
2013-02-01 20:53:00,21.3,1.8,30.05,WNW,302,4.0,7.0,42,0.00,,CLR,0.00,VWS V14.00,2013-02-02 01:53:00,
2013-02-01 20:58:00,21.3,1.8,30.05,WNW,294,5.0,12.0,42,0.00,,CLR,0.00,VWS V14.00,2013-02-02 01:58:00,
2013-02-01 21:03:00,21.1,2.1,30.05,WNW,293,2.0,5.0,43,0.00,,CLR,0.00,VWS V14.00,2013-02-02 02:03:00,
2013-02-01 21:08:00,21.1,2.1,30.05,West,271,4.0,8.0,43,0.00,,CLR,0.00,VWS V14.00,2013-02-02 02:08:00,
2013-02-01 21:13:00,21.1,2.1,30.05,WNW,297,5.0,6.0,43,0.00,,CLR,0.00,VWS V14.00,2013-02-02 02:13:00,
2013-02-01 21:18:00,21.0,2.5,30.06,WNW,290,5.0,5.0,44,0.00,,CLR,0.00,VWS V14.00,2013-02-02 02:18:00,
2013-02-01 21:23:00,21.0,2.5,30.06,West,275,2.0,5.0,44,0.00,,CLR,0.00,VWS V14.00,2013-02-02 02:23:00,
2013-02-01 21:28:00,21.0,2.5,30.06,WNW,293,3.0,5.0,44,0.00,,CLR,0.00,VWS V14.00,2013-02-02 02:28:00,
2013-02-01 21:33:00,20.8,2.3,30.06,WNW,284,1.0,6.0,44,0.00,,CLR,0.00,VWS V14.00,2013-02-02 02:33:00,
2013-02-01 21:38:00,20.8,2.3,30.06,WNW,294,3.0,5.0,44,0.00,,CLR,0.00,VWS V14.00,2013-02-02 02:38:00,
2013-02-01 21:43:00,20.8,2.8,30.06,WNW,297,2.0,4.0,45,0.00,,CLR,0.00,VWS V14.00,2013-02-02 02:43:00,
2013-02-01 21:48:00,20.6,2.6,30.07,WNW,297,1.0,2.0,45,0.00,,CLR,0.00,VWS V14.00,2013-02-02 02:48:00,
2013-02-01 21:53:00,20.6,2.6,30.07,WNW,302,3.0,5.0,45,0.00,,CLR,0.00,VWS V14.00,2013-02-02 02:53:00,
2013-02-01 21:58:00,20.6,2.6,30.07,West,278,3.0,4.0,45,0.00,,CLR,0.00,VWS V14.00,2013-02-02 02:58:00,
2013-02-01 22:03:00,20.6,3.1,30.07,West,271,1.0,3.0,46,0.00,,CLR,0.00,VWS V14.00,2013-02-02 03:03:00,
2013-02-01 22:08:00,20.8,3.3,30.07,WSW,251,6.0,6.0,46,0.00,,CLR,0.00,VWS V14.00,2013-02-02 03:08:00,
2013-02-01 22:13:00,20.8,2.8,30.07,WNW,284,10.0,10.0,45,0.00,,CLR,0.00,VWS V14.00,2013-02-02 03:13:00,
2013-02-01 22:18:00,21.0,3.0,30.08,WNW,292,2.0,5.0,45,0.00,,CLR,0.00,VWS V14.00,2013-02-02 03:18:00,
2013-02-01 22:23:00,21.0,3.5,30.08,SW,221,4.0,7.0,46,0.00,,CLR,0.00,VWS V14.00,2013-02-02 03:23:00,
2013-02-01 22:28:00,21.0,3.5,30.08,NW,310,3.0,4.0,46,0.00,,CLR,0.00,VWS V14.00,2013-02-02 03:28:00,
2013-02-01 22:33:00,21.0,3.0,30.08,West,259,3.0,5.0,45,0.00,,CLR,0.00,VWS V14.00,2013-02-02 03:33:00,
2013-02-01 22:38:00,21.0,3.5,30.08,West,267,7.0,15.0,46,0.00,,CLR,0.00,VWS V14.00,2013-02-02 03:38:00,
2013-02-01 22:43:00,21.0,3.5,30.08,West,272,2.0,4.0,46,0.00,,CLR,0.00,VWS V14.00,2013-02-02 03:43:00,
2013-02-01 22:48:00,20.8,3.3,30.08,West,272,11.0,13.0,46,0.00,,CLR,0.00,VWS V14.00,2013-02-02 03:48:00,
2013-02-01 22:53:00,21.0,3.5,30.08,WNW,300,4.0,6.0,46,0.00,,CLR,0.00,VWS V14.00,2013-02-02 03:53:00,
2013-02-01 22:58:00,21.0,3.5,30.08,WSW,246,2.0,7.0,46,0.00,,CLR,0.00,VWS V14.00,2013-02-02 03:58:00,
2013-02-01 23:03:00,21.0,3.9,30.08,West,277,2.0,3.0,47,0.00,,CLR,0.00,VWS V14.00,2013-02-02 04:03:00,
2013-02-01 23:08:00,21.0,4.4,30.08,West,262,4.0,7.0,48,0.00,,CLR,0.00,VWS V14.00,2013-02-02 04:08:00,
2013-02-01 23:13:00,20.8,3.8,30.08,WNW,298,7.0,14.0,47,0.00,,CLR,0.00,VWS V14.00,2013-02-02 04:13:00,
2013-02-01 23:18:00,20.8,3.8,30.09,WNW,302,11.0,12.0,47,0.00,,CLR,0.00,VWS V14.00,2013-02-02 04:18:00,
2013-02-01 23:23:00,20.8,4.2,30.09,West,276,2.0,7.0,48,0.00,,CLR,0.00,VWS V14.00,2013-02-02 04:23:00,
2013-02-01 23:28:00,20.8,4.2,30.09,WNW,300,6.0,6.0,48,0.00,,CLR,0.00,VWS V14.00,2013-02-02 04:28:00,
2013-02-01 23:33:00,20.6,4.5,30.09,WNW,291,11.0,15.0,49,0.00,,CLR,0.00,VWS V14.00,2013-02-02 04:33:00,
2013-02-01 23:38:00,20.6,4.5,30.09,WNW,285,5.0,9.0,49,0.00,,CLR,0.00,VWS V14.00,2013-02-02 04:38:00,
2013-02-01 23:43:00,20.5,4.8,30.09,West,276,10.0,12.0,50,0.00,,CLR,0.00,VWS V14.00,2013-02-02 04:43:00,
2013-02-01 23:48:00,20.5,5.3,30.10,West,276,2.0,9.0,51,0.00,,CLR,0.00,VWS V14.00,2013-02-02 04:48:00,
2013-02-01 23:53:00,20.3,5.1,30.10,NW,318,1.0,2.0,51,0.00,,CLR,0.00,VWS V14.00,2013-02-02 04:53:00,
2013-02-01 23:58:00,20.2,5.4,30.10,West,264,2.0,4.0,52,0.00,,CLR,0.00,VWS V14.00,2013-02-02 04:58:00,